Weather in San Salvador

El Salvador     13°42′09″N   89°13′10″W
temp.,
°C
wind,
m/s
gust,
m/s
humid.,
%
clouds,
%
prec.,
mm/h
press.,
hPa
HPBL,
m
23 september, thu
thu2300:00+20nnw119854 0.9 101323
03:00+19nnw119864 0.0 101125
06:00+18nnw119850 0.0 101337
09:00+25n227242 0.0 1014583
12:00+29n11547 0.0 10111429
15:00+29s01546 0.4 10081348
18:00+21ssw119537 2.3 101126
21:00+20sw119863 0.8 101316
24 september, fri
fri2400:00+19n119953 3.5 101322
03:00+19nnw119953 0.1 101246
06:00+18nnw119981 0.1 101434
09:00+24n127435 0.0 1015483
12:00+28n115642 0.1 10121406
15:00+27s116965 0.9 1009767
18:00+21ssw1197100 2.6 101120
21:00+20ssw119788 2.8 101413
25 september, sat
sat2500:00+19n119880 5.4 101415
03:00+19n119978 1.5 101331
06:00+18nnw119968 1.6 101439
09:00+25n127312 0.0 1015502
12:00+29n225644 0.0 10121338
15:00+27s117040 0.9 1010535
18:00+21s119678 4.9 101221
21:00+20nw129995 7.9 101567
26 september, sun
sun2600:00+20nnw1198100 11.2 101524
03:00+19nnw1198100 3.1 101414
06:00+19nw1199100 3.4 101454
09:00+23nnw1284100 0.0 1015367
12:00+28nnw1259100 0.2 10131253
15:00+25ssw228499 2.1 1011609
18:00+22ssw239899 2.7 101388
21:00+21s0199100 3.6 101578
27 september, mon
mon2700:00+21ne1199100 6.6 101525
03:00+20n1110076 0.1 101370
06:00+19nnw1110051 0.2 101468
09:00+24n117544 0.0 1015516
12:00+29n1154100 0.1 10131300
15:00+27s1169100 0.9 1010853
18:00+21ssw2298100 3.1 101253
21:00+20s1198100 0.6 101426